Regional Weather Roundup
Issued by NWS

Home | Current Version | Previous Version | Text Only | Print | Product List | Glossary Off
Versions: 1 2 3 4 5 6 7 8 9 10 11 12 13 14 15 16 17 18 19 20 21 22 23 24 25 26 27 28 29 30 31 32 33 34 35 36 37 38 39 40 41 42 43 44 45 46 47 48 49 50

000
ASUS45 KABQ 160201
RWRNM
WEATHER ROUNDUP FOR NEW MEXICO
NATIONAL WEATHER SERVICE ALBUQUERQUE NM
800 PM MDT MON SEP 15 2014

NOTE: "FAIR" MEANS FEW OR NO CLOUDS BELOW 12,000 FEET AGL WITH NO
       SIGNIFICANT WEATHER OR OBSTRUCTIONS TO VISION.

      THIS PRODUCT IS RELEASED AS TWO VERSIONS.  ONE VERSION NEAR
      THE TOP OF THE HOUR CONTAINING PRELIMINARY DATA FROM ALBUQUERQUE
      AND OTHER STATIONS.  A FINAL VERSION WITH ADDITIONAL DATA IS
      ISSUED ABOUT 10 MINUTES AFTER THE HOUR.

NMZ501-503-504-510>518-160300-
NORTHWEST PLATEAU/NORTHCENTRAL MOUNTAINS

CITY           SKY/WX    TMP DP  RH WIND       PRES   REMARKS
FARMINGTON     CLEAR     79  38  22 SW5       30.14R
LOS ALAMOS     PTCLDY    66  48  52 S12G18    30.38R
SANTA FE       PTCLDY    68  51  54 SE15      30.31R
ANGEL FIRE     FAIR      48  44  85 W3        30.49S

$$
NMZ402-403-502-505>509-160300-
WESTCENTRAL MOUNTAINS/SOUTHWEST MOUNTAINS

CITY           SKY/WX    TMP DP  RH WIND       PRES   REMARKS
GALLUP         LGT RAIN  62  54  74 W17G26    30.30R
GRANTS         MOCLDY    70  43  37 CALM      30.27R
SILVER CITY    CLOUDY    72  55  56 SE10      30.24R

$$
NMZ407-409-411-412-160300-
SOUTHERN DESERTS

CITY           SKY/WX    TMP DP  RH WIND       PRES   REMARKS
LORDSBURG      FAIR      77  57  50 SE13      30.11R
DEMING         CLOUDY    77  58  51 E6        30.15R
LAS CRUCES     CLOUDY    74  59  58 SE7       30.18S
HOLLOMAN AFB   MOCLDY    76  59  56 S10       30.15R
ALAMOGORDO     CLOUDY    73  59  60 S12       30.17R
T OR C         CLOUDY    77  57  50 S13       30.17R

$$
NMZ519>523-160300-
CENTRAL VALLEYS/CENTRAL HIGHLANDS

CITY           SKY/WX    TMP DP  RH WIND       PRES   REMARKS
ALBUQUERQUE    CLOUDY    71  56  58 SE14      30.23R
DOUBLE EAGLE   LGT RAIN  68  59  73 NE8       30.27R
CLINES CORNERS CLOUDY    63  53  70 E17G28    30.38R
BELEN          FAIR      74  56  53 SE22      30.23R
SOCORRO        MOCLDY    77  56  46 SE15      30.19R

$$
NMZ524>526-539-540-160300-
SOUTHCENTRAL MOUNTAINS

CITY           SKY/WX    TMP DP  RH WIND       PRES   REMARKS
RUIDOSO        NOT AVBL

$$
NMZ527>531-160300-
NORTHEAST HIGHLANDS/NORTHEAST PLAINS

CITY           SKY/WX    TMP DP  RH WIND       PRES   REMARKS
LAS VEGAS      MOCLDY    58  53  84 SE8       30.39R
RATON          MOCLDY    62  52  69 SW13      30.35R
CLAYTON        CLOUDY    56  53  90 NE7       30.34R

$$
NMZ532>537-160300-
EASTCENTRAL PLAINS

CITY           SKY/WX    TMP DP  RH WIND       PRES   REMARKS
TUCUMCARI      MOCLDY    64  55  72 NE15      30.28R
CANNON AFB     CLOUDY    68  59  71 NE17      30.27R
CLOVIS AIRPORT   N/A     66  57  72 NE17      30.29R

$$
NMZ028-029-538-160300-
SOUTHEAST PLAINS

CITY           SKY/WX    TMP DP  RH WIND       PRES   REMARKS
ROSWELL        CLOUDY    71  64  78 E3        30.20R
CARLSBAD       CLOUDY    72  70  93 S5        30.16R
HOBBS          CLOUDY    68  66  94 E6        30.22R


$$



USA.gov is the U.S. government's official web portal to all federal, state and local government web resources and services.